Location: Petrozavodsk
(61.7955°N, 34.3748°E)
Time: 01:01:40
(UTC+03:00)

Envisat - Pass Details

Date: 26 March 2023
Orbit: 763 x 765 km, 98.2° (Epoch: 28 May)

Event Time Altitude Azimuth Distance (km) Brightness Sun altitude
Rises 05:09:18 0° 18° (NNE) 3,250 6.9 -9.6°
Reaches altitude 10° 05:11:37 10° 19° (NNE) 2,319 6.1 -9.3°
Maximum altitude 05:16:45 81° 108° (ESE) 785 3.2 -8.8°
Drops below altitude 10° 05:21:50 10° 195° (SSW) 2,304 5.1 -8.2°
Sets 05:24:08 0° 197° (SSW) 3,226 5.9 -7.9°
